Location: Ergnies
(50.0854°N, 2.0375°E)
Time: 06:04:32
(UTC+00:00)

SAR-Lupe-4 - Pass Details

Date: 14 January 2026
Orbit: 480 x 483 km, 98.1° (Epoch: 10 January)

Event Time Altitude Azimuth Distance (km) Brightness Sun altitude
Rises 07:01:06 0° 14° (NNE) 2,562 7.1 -7.1°
Reaches altitude 10° 07:03:10 10° 14° (NNE) 1,676 6.2 -6.8°
Maximum altitude 07:06:47 86° 286° (WNW) 491 3.5 -6.2°
Drops below altitude 10° 07:10:21 10° 197° (SSW) 1,660 6.4 -5.7°
Sets 07:12:24 0° 197° (SSW) 2,535 7.3 -5.4°
